| time (UTC) | temp F | wind direction | speed knots | gust knots | rain 1hr in | rain 24hr in | rain mn in | humidity % | barometer mb |
| 20260904195504 | 80 | 70 | 5.2 | 9.6 | 0.00 | 0.00 | 0.00 | 76 | 1011.6 |
| 20260904195001 | 80 | 75 | 5.2 | 11.3 | 0.00 | 0.00 | 0.00 | 77 | 1011.6 |
| 20260904194608 | 80 | 152 | 6.1 | 11.3 | 0.00 | 0.00 | 0.00 | 78 | 1011.7 |
| 20260904194100 | 80 | 73 | 7.8 | 9.6 | 0.00 | 0.00 | 0.00 | 77 | 1011.7 |
| 20260904193600 | 80 | 103 | 5.2 | 9.6 | 0.00 | 0.00 | 0.00 | 77 | 1011.7 |
| 20260904193059 | 80 | 69 | 7.0 | 11.3 | 0.00 | 0.00 | 0.00 | 77 | 1011.7 |
| 20260904192558 | 80 | 96 | 6.1 | 8.7 | 0.00 | 0.00 | 0.00 | 77 | 1011.7 |
| 20260904192058 | 80 | 56 | 4.3 | 8.7 | 0.00 | 0.00 | 0.00 | 78 | 1011.6 |
| 20260904191557 | 79 | 97 | 5.2 | 8.7 | 0.00 | 0.00 | 0.00 | 78 | 1011.7 |
| 20260904191156 | 79 | 83 | 4.3 | 7.8 | 0.00 | 0.00 | 0.00 | 78 | 1011.7 |
| 20260904190555 | 79 | 101 | 4.3 | 10.4 | 0.00 | 0.00 | 0.00 | 79 | 1011.7 |
| 20260904190057 | 79 | 77 | 5.2 | 11.3 | 0.00 | 0.00 | 0.00 | 80 | 1011.7 |
| 20260904185554 | 79 | 108 | 4.3 | 11.3 | 0.00 | 0.00 | 0.00 | 80 | 1011.8 |
| 20260904185054 | 79 | 56 | 6.1 | 11.3 | 0.00 | 0.00 | 0.00 | 81 | 1011.8 |
| 20260904184554 | 79 | 81 | 3.5 | 11.3 | 0.00 | 0.00 | 0.00 | 82 | 1011.8 |
| 20260904184055 | 79 | 58 | 6.1 | 10.4 | 0.00 | 0.00 | 0.00 | 81 | 1011.8 |
| 20260904183552 | 78 | 75 | 5.2 | 7.8 | 0.00 | 0.00 | 0.00 | 82 | 1011.8 |
| 20260904183110 | 78 | 98 | 4.3 | 7.8 | 0.00 | 0.00 | 0.00 | 83 | 1011.9 |
| 20260904182549 | 78 | 109 | 3.5 | 9.6 | 0.00 | 0.00 | 0.00 | 84 | 1012.0 |
| 20260904182049 | 77 | 105 | 4.3 | 9.6 | 0.00 | 0.00 | 0.00 | 84 | 1012.0 |
| 20260904181549 | 77 | 85 | 5.2 | 9.6 | 0.00 | 0.00 | 0.00 | 84 | 1011.9 |
| 20260904181051 | 78 | 67 | 4.3 | 9.6 | 0.00 | 0.00 | 0.00 | 84 | 1011.9 |
| 20260904180551 | 77 | 77 | 6.1 | 9.6 | 0.00 | 0.00 | 0.00 | 84 | 1011.8 |
| 20260904180048 | 77 | 75 | 6.1 | 12.2 | 0.00 | 0.00 | 0.00 | 85 | 1011.8 |
| 20260904175547 | 77 | 96 | 6.1 | 12.2 | 0.00 | 0.00 | 0.00 | 85 | 1011.8 |
| 20260904175049 | 77 | 81 | 3.5 | 13.0 | 0.00 | 0.00 | 0.00 | 86 | 1011.8 |
| 20260904174546 | 77 | 75 | 7.8 | 13.0 | 0.00 | 0.00 | 0.00 | 86 | 1011.7 |
| 20260904174043 | 76 | 96 | 5.2 | 12.2 | 0.00 | 0.00 | 0.00 | 87 | 1011.7 |
| 20260904173542 | 76 | 75 | 7.0 | 12.2 | 0.00 | 0.00 | 0.00 | 88 | 1011.7 |
| 20260904173043 | 76 | 74 | 7.0 | 12.2 | 0.00 | 0.00 | 0.00 | 89 | 1011.6 |
| 20260904172539 | 75 | 91 | 5.2 | 12.2 | 0.00 | 0.00 | 0.00 | 90 | 1011.6 |
| 20260904172039 | 75 | 79 | 7.0 | 13.0 | 0.00 | 0.00 | 0.00 | 90 | 1011.6 |
| 20260904171542 | 75 | 52 | 7.8 | 12.2 | 0.00 | 0.00 | 0.00 | 89 | 1011.6 |
| 20260904171042 | 75 | 126 | 6.1 | 12.2 | 0.00 | 0.00 | 0.00 | 90 | 1011.5 |
| 20260904170541 | 75 | 60 | 8.7 | 12.2 | 0.00 | 0.00 | 0.00 | 89 | 1011.5 |
| 20260904170039 | 75 | 123 | 3.5 | 8.7 | 0.00 | 0.00 | 0.00 | 91 | 1011.5 |
| 20260904165536 | 75 | 87 | 3.5 | 8.7 | 0.00 | 0.00 | 0.00 | 91 | 1011.5 |
| 20260904165036 | 75 | 83 | 6.1 | 9.6 | 0.00 | 0.00 | 0.00 | 90 | 1011.5 |
| 20260904164534 | 74 | 86 | 5.2 | 9.6 | 0.00 | 0.00 | 0.00 | 93 | 1011.5 |
| 20260904164034 | 73 | 74 | 6.1 | 9.6 | 0.00 | 0.00 | 0.00 | 93 | 1011.6 |
| 20260904163532 | 73 | 68 | 7.0 | 9.6 | 0.00 | 0.00 | 0.00 | 95 | 1011.4 |
| 20260904163134 | 73 | 114 | 6.1 | 9.6 | 0.00 | 0.00 | 0.00 | 95 | 1011.3 |
| 20260904162531 | 72 | 77 | 6.1 | 9.6 | 0.00 | 0.00 | 0.00 | 96 | 1011.3 |
| 20260904162032 | 72 | 63 | 6.1 | 7.8 | 0.00 | 0.00 | 0.00 | 96 | 1011.3 |
| 20260904161531 | 71 | 86 | 2.6 | 7.0 | 0.00 | 0.00 | 0.00 | 97 | 1011.4 |
| 20260904161030 | 71 | 69 | 3.5 | 6.1 | 0.00 | 0.00 | 0.00 | 98 | 1011.3 |
| 20260904160529 | 71 | 54 | 2.6 | 6.1 | 0.00 | 0.00 | 0.00 | 99 | 1011.2 |
| 20260904160029 | 70 | 82 | 3.5 | 6.1 | 0.00 | 0.00 | 0.00 | 99 | 1011.2 |
| 20260904155529 | 70 | 73 | 0.0 | 6.1 | 0.00 | 0.00 | 0.00 | 100 | 1011.1 |
| 20260904155028 | 69 | 82 | 3.5 | 7.0 | 0.00 | 0.00 | 0.00 | 100 | 1011.1 |
| 20260904154528 | 69 | 98 | 5.2 | 7.8 | 0.00 | 0.00 | 0.00 | 100 | 1011.1 |
| 20260904154028 | 69 | 74 | 4.3 | 7.8 | 0.00 | 0.00 | 0.00 | 100 | 1011.1 |
| 20260904153527 | 68 | 69 | 3.5 | 6.1 | 0.00 | 0.00 | 0.00 | 100 | 1011.0 |
| 20260904153026 | 68 | 96 | 3.5 | 7.8 | 0.00 | 0.00 | 0.00 | 100 | 1010.9 |
| 20260904152526 | 68 | 67 | 3.5 | 7.8 | 0.00 | 0.00 | 0.00 | 100 | 1010.8 |
| 20260904152025 | 68 | 56 | 2.6 | 7.0 | 0.00 | 0.00 | 0.00 | 100 | 1010.8 |
| 20260904151527 | 68 | 58 | 5.2 | 8.7 | 0.00 | 0.00 | 0.00 | 100 | 1010.8 |
| 20260904151024 | 68 | 84 | 4.3 | 7.0 | 0.00 | 0.00 | 0.00 | 100 | 1010.8 |
| 20260904150524 | 68 | 66 | 2.6 | 6.1 | 0.00 | 0.00 | 0.00 | 100 | 1010.7 |
| 20260904150027 | 68 | 47 | 3.5 | 7.0 | 0.00 | 0.00 | 0.00 | 100 | 1010.7 |
| 20260904145524 | 68 | 63 | 4.3 | 6.1 | 0.00 | 0.00 | 0.00 | 100 | 1010.6 |
| 20260904145022 | 68 | 47 | 2.6 | 5.2 | 0.00 | 0.00 | 0.00 | 100 | 1010.6 |
| 20260904144524 | 68 | 23 | 0.0 | 4.3 | 0.00 | 0.00 | 0.00 | 100 | 1010.6 |
| 20260904144022 | 68 | 73 | 1.7 | 4.3 | 0.00 | 0.00 | 0.00 | 100 | 1010.6 |
| 20260904143522 | 68 | 62 | 0.0 | 3.5 | 0.00 | 0.00 | 0.00 | 100 | 1010.5 |
| 20260904143021 | 68 | 69 | 2.6 | 3.5 | 0.00 | 0.00 | 0.00 | 100 | 1010.6 |
| 20260904142520 | 68 | 71 | 1.7 | 3.5 | 0.00 | 0.00 | 0.00 | 100 | 1010.3 |
| 20260904142020 | 67 | 85 | 0.9 | 3.5 | 0.00 | 0.00 | 0.00 | 100 | 1010.3 |
| 20260904141519 | 67 | 65 | 0.0 | 3.5 | 0.00 | 0.00 | 0.00 | 100 | 1010.3 |
| 20260904141017 | 67 | 71 | 0.9 | 3.5 | 0.00 | 0.00 | 0.00 | 100 | 1010.3 |
| 20260904140516 | 67 | 67 | 0.9 | 3.5 | 0.00 | 0.00 | 0.00 | 100 | 1010.2 |
| 20260904140016 | 67 | 63 | 0.9 | 3.5 | 0.00 | 0.00 | 0.00 | 100 | 1010.1 |
| 20260904135516 | 67 | 57 | 0.9 | 3.5 | 0.00 | 0.00 | 0.00 | 100 | 1010.1 |
| 20260904135016 | 67 | 69 | 0.9 | 4.3 | 0.00 | 0.00 | 0.00 | 100 | 1010.1 |
| 20260904134521 | 67 | 60 | 0.9 | 3.5 | 0.00 | 0.00 | 0.00 | 100 | 1010.1 |
| 20260904134016 | 67 | 90 | 0.0 | 3.5 | 0.00 | 0.00 | 0.00 | 100 | 1010.0 |
| 20260904133513 | 67 | 96 | 0.0 | 3.5 | 0.00 | 0.00 | 0.00 | 100 | 1009.8 |
| 20260904133013 | 67 | 101 | 0.9 | 4.3 | 0.00 | 0.00 | 0.00 | 100 | 1009.8 |
| 20260904132513 | 66 | 64 | 2.6 | 4.3 | 0.00 | 0.00 | 0.00 | 100 | 1009.8 |
| 20260904132012 | 66 | 63 | 2.6 | 5.2 | 0.00 | 0.00 | 0.00 | 100 | 1009.8 |
| 20260904131512 | 66 | 73 | 3.5 | 4.3 | 0.00 | 0.00 | 0.00 | 100 | 1009.8 |
| 20260904131011 | 66 | 69 | 2.6 | 4.3 | 0.00 | 0.00 | 0.00 | 100 | 1009.7 |
| 20260904130511 | 66 | 83 | 1.7 | 5.2 | 0.00 | 0.00 | 0.00 | 100 | 1009.7 |
| 20260904130023 | 66 | 73 | 3.5 | 5.2 | 0.00 | 0.00 | 0.00 | 100 | 1009.7 |
| 20260904125512 | 66 | 69 | 2.6 | 5.2 | 0.00 | 0.00 | 0.00 | 100 | 1009.6 |
| 20260904125009 | 66 | 70 | 3.5 | 5.2 | 0.00 | 0.00 | 0.00 | 100 | 1009.6 |
| 20260904124509 | 66 | 72 | 2.6 | 6.1 | 0.00 | 0.00 | 0.00 | 100 | 1009.4 |
| 20260904124010 | 66 | 138 | 3.5 | 6.1 | 0.00 | 0.00 | 0.00 | 100 | 1009.4 |
| 20260904123508 | 66 | 77 | 1.7 | 7.8 | 0.00 | 0.00 | 0.00 | 100 | 1009.3 |
| 20260904123015 | 66 | 68 | 3.5 | 7.8 | 0.00 | 0.00 | 0.00 | 100 | 1009.5 |
| 20260904122505 | 66 | 73 | 5.2 | 7.0 | 0.00 | 0.00 | 0.00 | 100 | 1009.5 |
| 20260904122004 | 67 | 70 | 3.5 | 7.0 | 0.00 | 0.00 | 0.00 | 100 | 1009.4 |
| 20260904121503 | 67 | 75 | 2.6 | 7.0 | 0.00 | 0.00 | 0.00 | 100 | 1009.3 |
| 20260904121001 | 67 | 56 | 4.3 | 7.0 | 0.00 | 0.00 | 0.00 | 100 | 1009.3 |
| 20260904120501 | 67 | 62 | 4.3 | 7.0 | 0.00 | 0.00 | 0.00 | 100 | 1009.3 |
| 20260904120112 | 67 | 65 | 3.5 | 6.1 | 0.00 | 0.00 | 0.00 | 100 | 1009.2 |
| 20260904120034 | 67 | 58 | 2.6 | 7.0 | 0.00 | 0.00 | 0.00 | 100 | 1009.2 |
| 20260904115603 | 67 | 79 | 4.3 | 6.1 | 0.00 | 0.00 | 0.00 | 100 | 1009.1 |
| 20260904115059 | 68 | 61 | 4.3 | 6.1 | 0.00 | 0.00 | 0.00 | 100 | 1009.0 |
| 20260904114558 | 68 | 75 | 1.7 | 5.2 | 0.00 | 0.00 | 0.00 | 100 | 1009.0 |
| 20260904114057 | 68 | 79 | 2.6 | 6.1 | 0.00 | 0.00 | 0.00 | 100 | 1008.9 |
| 20260904113556 | 68 | 72 | 4.3 | 6.1 | 0.00 | 0.00 | 0.00 | 100 | 1009.0 |
| 20260904113056 | 68 | 77 | 3.5 | 7.0 | 0.00 | 0.00 | 0.00 | 100 | 1008.8 |
| 20260904112558 | 68 | 68 | 3.5 | 5.2 | 0.00 | 0.00 | 0.00 | 100 | 1008.8 |
| 20260904112056 | 68 | 65 | 2.6 | 6.1 | 0.00 | 0.00 | 0.00 | 100 | 1008.9 |
| 20260904111553 | 69 | 63 | 2.6 | 6.1 | 0.00 | 0.00 | 0.00 | 100 | 1008.8 |
| 20260904111057 | 69 | 72 | 0.0 | 6.1 | 0.00 | 0.00 | 0.00 | 100 | 1008.8 |
| 20260904110552 | 69 | 67 | 0.0 | 6.1 | 0.00 | 0.00 | 0.00 | 100 | 1008.8 |
| 20260904110053 | 70 | 64 | 3.5 | 5.2 | 0.00 | 0.00 | 0.00 | 100 | 1008.8 |
| 20260904105553 | 70 | 65 | 2.6 | 7.0 | 0.00 | 0.00 | 0.00 | 100 | 1008.8 |
| 20260904105049 | 70 | 107 | 1.7 | 7.0 | 0.00 | 0.00 | 0.00 | 100 | 1008.6 |
| 20260904104548 | 70 | 79 | 1.7 | 8.7 | 0.00 | 0.00 | 0.00 | 100 | 1008.6 |
| 20260904104048 | 70 | 64 | 6.1 | 8.7 | 0.00 | 0.00 | 0.00 | 100 | 1008.6 |
| 20260904103547 | 70 | 90 | 0.0 | 6.1 | 0.00 | 0.00 | 0.00 | 100 | 1008.3 |
| 20260904103047 | 70 | 64 | 5.2 | 6.1 | 0.00 | 0.00 | 0.00 | 100 | 1008.6 |
| 20260904102546 | 70 | 136 | 0.0 | 5.2 | 0.00 | 0.00 | 0.00 | 100 | 1008.3 |
| 20260904102045 | 70 | 120 | 3.5 | 6.1 | 0.00 | 0.00 | 0.00 | 100 | 1008.5 |
| 20260904101544 | 70 | 155 | 0.0 | 6.1 | 0.00 | 0.00 | 0.00 | 100 | 1008.3 |
| 20260904101045 | 70 | 91 | 3.5 | 7.0 | 0.00 | 0.00 | 0.00 | 100 | 1008.5 |
| 20260904100545 | 70 | 194 | 0.9 | 7.0 | 0.00 | 0.00 | 0.00 | 100 | 1008.4 |
| 20260904100047 | 70 | 67 | 1.7 | 7.0 | 0.00 | 0.00 | 0.00 | 100 | 1008.5 |
| 20260904095544 | 70 | 103 | 0.9 | 4.3 | 0.00 | 0.00 | 0.00 | 100 | 1008.4 |
| 20260904095044 | 70 | 94 | 0.0 | 5.2 | 0.00 | 0.00 | 0.00 | 100 | 1008.4 |
| 20260904094543 | 70 | 115 | 0.9 | 5.2 | 0.00 | 0.00 | 0.00 | 100 | 1008.4 |
| 20260904094042 | 70 | 64 | 0.9 | 4.3 | 0.00 | 0.00 | 0.00 | 100 | 1008.5 |
| 20260904093542 | 70 | 111 | 0.0 | 2.6 | 0.00 | 0.00 | 0.00 | 99 | 1008.5 |
| 20260904093040 | 70 | 88 | 0.9 | 2.6 | 0.00 | 0.00 | 0.00 | 100 | 1008.4 |
| 20260904092541 | 70 | 101 | 0.0 | 2.6 | 0.00 | 0.00 | 0.00 | 100 | 1008.2 |
| 20260904092040 | 70 | 117 | 0.0 | 6.1 | 0.00 | 0.00 | 0.00 | 100 | 1008.2 |
| 20260904091541 | 70 | 94 | 4.3 | 6.1 | 0.00 | 0.00 | 0.00 | 99 | 1008.3 |
| 20260904091039 | 71 | 82 | 0.0 | 7.0 | 0.00 | 0.00 | 0.00 | 100 | 1008.2 |
| 20260904090539 | 71 | 156 | 0.0 | 8.7 | 0.00 | 0.00 | 0.00 | 99 | 1008.1 |
| 20260904090039 | 71 | 69 | 7.0 | 9.6 | 0.00 | 0.00 | 0.00 | 100 | 1008.4 |
| 20260904085537 | 71 | 79 | 0.9 | 13.0 | 0.00 | 0.00 | 0.00 | 100 | 1008.1 |
| 20260904085040 | 71 | 127 | 0.9 | 13.0 | 0.00 | 0.00 | 0.00 | 99 | 1008.0 |
| 20260904084537 | 70 | 72 | 8.7 | 9.6 | 0.00 | 0.00 | 0.00 | 98 | 1008.1 |
| 20260904084037 | 71 | 82 | 0.0 | 0.9 | 0.00 | 0.00 | 0.00 | 99 | 1007.8 |
| 20260904083535 | 71 | 136 | 0.0 | 0.0 | 0.00 | 0.00 | 0.00 | 99 | 1007.7 |
| 20260904083037 | 71 | 136 | 0.0 | 0.0 | 0.00 | 0.00 | 0.00 | 99 | 1007.7 |
| 20260904082534 | 71 | 136 | 0.0 | 0.0 | 0.00 | 0.00 | 0.00 | 99 | 1007.7 |
| 20260904082034 | 71 | 136 | 0.0 | 0.9 | 0.00 | 0.00 | 0.00 | 99 | 1007.7 |
| 20260904081544 | 71 | 136 | 0.0 | 0.9 | 0.00 | 0.00 | 0.00 | 99 | 1007.7 |
| 20260904081033 | 72 | 83 | 0.0 | 0.0 | 0.00 | 0.00 | 0.00 | 98 | 1007.6 |
| 20260904080533 | 72 | 84 | 0.0 | 0.9 | 0.00 | 0.00 | 0.00 | 99 | 1007.7 |
| 20260904080033 | 72 | 83 | 0.0 | 0.9 | 0.00 | 0.00 | 0.00 | 99 | 1007.6 |
| 20260904075533 | 72 | 107 | 0.0 | 0.9 | 0.00 | 0.00 | 0.00 | 99 | 1007.6 |
| 20260904075032 | 72 | 115 | 0.0 | 0.0 | 0.00 | 0.00 | 0.00 | 99 | 1007.6 |
| 20260904074533 | 72 | 156 | 0.0 | 0.9 | 0.00 | 0.00 | 0.00 | 99 | 1007.6 |
| 20260904074032 | 72 | 156 | 0.0 | 0.9 | 0.00 | 0.00 | 0.00 | 99 | 1007.6 |
| 20260904073536 | 72 | 236 | 0.0 | 0.9 | 0.00 | 0.00 | 0.00 | 99 | 1007.7 |
| 20260904073030 | 71 | 97 | 0.0 | 1.7 | 0.00 | 0.00 | 0.00 | 98 | 1007.7 |
| 20260904072530 | 71 | 90 | 0.0 | 1.7 | 0.00 | 0.00 | 0.00 | 98 | 1007.7 |
| 20260904072032 | 71 | 56 | 0.0 | 0.9 | 0.00 | 0.00 | 0.00 | 98 | 1007.7 |
| 20260904071531 | 71 | 115 | 0.0 | 0.9 | 0.00 | 0.00 | 0.00 | 97 | 1007.6 |
| 20260904071030 | 72 | 97 | 0.0 | 0.0 | 0.00 | 0.00 | 0.00 | 97 | 1007.6 |
| 20260904070529 | 72 | 97 | 0.0 | 0.0 | 0.00 | 0.00 | 0.00 | 97 | 1007.7 |
| 20260904070030 | 72 | 98 | 0.0 | 0.0 | 0.00 | 0.00 | 0.00 | 97 | 1007.7 |
| 20260904065528 | 72 | 97 | 0.0 | 0.0 | 0.00 | 0.00 | 0.00 | 97 | 1007.7 |
| 20260904065027 | 72 | 89 | 0.0 | 0.9 | 0.00 | 0.00 | 0.00 | 97 | 1007.8 |
| 20260904064527 | 72 | 89 | 0.0 | 0.9 | 0.00 | 0.00 | 0.00 | 97 | 1007.7 |
| 20260904064027 | 73 | 100 | 0.0 | 0.9 | 0.00 | 0.00 | 0.00 | 97 | 1007.7 |
| 20260904063526 | 73 | 100 | 0.0 | 0.9 | 0.00 | 0.00 | 0.00 | 97 | 1007.7 |
| 20260904063025 | 73 | 100 | 0.0 | 0.9 | 0.00 | 0.00 | 0.00 | 96 | 1007.7 |
| 20260904062528 | 73 | 92 | 0.0 | 0.9 | 0.00 | 0.00 | 0.00 | 96 | 1007.7 |
| 20260904062024 | 73 | 94 | 0.0 | 0.9 | 0.00 | 0.00 | 0.00 | 96 | 1007.7 |
| 20260904061538 | 73 | 94 | 0.0 | 0.9 | 0.00 | 0.00 | 0.00 | 96 | 1007.6 |
| 20260904061022 | 73 | 96 | 0.0 | 0.9 | 0.00 | 0.00 | 0.00 | 95 | 1007.6 |
| 20260904060522 | 73 | 117 | 0.0 | 0.0 | 0.00 | 0.00 | 0.00 | 95 | 1007.6 |
| 20260904060022 | 73 | 115 | 0.0 | 0.9 | 0.00 | 0.00 | 0.00 | 95 | 1007.6 |
| 20260904055521 | 73 | 141 | 0.0 | 1.7 | 0.00 | 0.00 | 0.00 | 95 | 1007.5 |
| 20260904055020 | 74 | 181 | 0.0 | 1.7 | 0.00 | 0.00 | 0.00 | 95 | 1007.5 |
| 20260904054522 | 74 | 200 | 0.0 | 1.7 | 0.00 | 0.00 | 0.00 | 95 | 1007.3 |
| 20260904054018 | 73 | 179 | 0.0 | 0.9 | 0.00 | 0.00 | 0.00 | 95 | 1007.3 |
| 20260904053521 | 74 | 242 | 0.0 | 0.9 | 0.00 | 0.00 | 0.00 | 95 | 1007.3 |
| 20260904053014 | 74 | 214 | 0.0 | 0.9 | 0.00 | 0.00 | 0.00 | 95 | 1007.2 |
| 20260904052513 | 74 | 246 | 0.0 | 0.9 | 0.00 | 0.00 | 0.00 | 94 | 1007.2 |
| 20260904052014 | 74 | 243 | 0.0 | 0.9 | 0.00 | 0.00 | 0.00 | 94 | 1007.3 |
| 20260904051510 | 74 | 242 | 0.0 | 0.9 | 0.00 | 0.00 | 0.00 | 94 | 1007.2 |
| 20260904051013 | 74 | 243 | 0.0 | 0.9 | 0.00 | 0.00 | 0.00 | 94 | 1007.2 |
| 20260904050507 | 74 | 238 | 0.0 | 0.9 | 0.00 | 0.00 | 0.00 | 93 | 1007.2 |
| 20260904050006 | 74 | 242 | 0.0 | 0.9 | 0.00 | 0.00 | 0.00 | 93 | 1007.1 |
| 20260904045507 | 74 | 238 | 0.0 | 0.9 | 0.00 | 0.00 | 0.00 | 93 | 1007.1 |
| 20260904045008 | 74 | 245 | 0.0 | 0.9 | 0.00 | 0.00 | 0.00 | 93 | 1007.1 |
| 20260904044508 | 74 | 243 | 0.0 | 0.9 | 0.00 | 0.00 | 0.00 | 92 | 1007.1 |
| 20260904044005 | 74 | 198 | 0.0 | 1.7 | 0.00 | 0.00 | 0.00 | 92 | 1007.1 |
| 20260904043504 | 74 | 242 | 0.0 | 1.7 | 0.00 | 0.00 | 0.00 | 92 | 1007.2 |
| 20260904043004 | 75 | 248 | 0.0 | 1.7 | 0.00 | 0.00 | 0.00 | 91 | 1007.2 |
| 20260904042504 | 75 | 207 | 0.0 | 0.9 | 0.00 | 0.00 | 0.00 | 91 | 1007.2 |
| 20260904042003 | 75 | 271 | 0.0 | 3.5 | 0.00 | 0.00 | 0.00 | 91 | 1007.1 |
| 20260904041504 | 75 | 226 | 0.0 | 3.5 | 0.00 | 0.00 | 0.00 | 90 | 1007.1 |
| 20260904041003 | 75 | 242 | 0.0 | 2.6 | 0.00 | 0.00 | 0.00 | 90 | 1007.2 |
| 20260904040503 | 75 | 145 | 0.0 | 0.9 | 0.00 | 0.00 | 0.00 | 90 | 1007.2 |
| 20260904040003 | 75 | 226 | 0.0 | 1.7 | 0.00 | 0.00 | 0.00 | 89 | 1007.1 |
| 20260904035503 | 75 | 174 | 0.0 | 1.7 | 0.00 | 0.00 | 0.00 | 89 | 1007.1 |
| 20260904035003 | 75 | 233 | 0.0 | 1.7 | 0.00 | 0.00 | 0.00 | 89 | 1007.1 |
| 20260904034503 | 76 | 195 | 0.0 | 1.7 | 0.00 | 0.00 | 0.00 | 88 | 1007.2 |
| 20260904034003 | 76 | 215 | 0.0 | 1.7 | 0.00 | 0.00 | 0.00 | 88 | 1007.2 |
| 20260904033503 | 76 | 277 | 0.0 | 3.5 | 0.00 | 0.00 | 0.00 | 88 | 1007.2 |
| 20260904033002 | 76 | 214 | 0.0 | 3.5 | 0.00 | 0.00 | 0.00 | 87 | 1007.1 |
| 20260904032502 | 76 | 243 | 0.0 | 3.5 | 0.00 | 0.00 | 0.00 | 87 | 1007.1 |
| 20260904032003 | 76 | 238 | 0.0 | 3.5 | 0.00 | 0.00 | 0.00 | 87 | 1007.1 |
| 20260904031502 | 76 | 208 | 0.0 | 3.5 | 0.00 | 0.00 | 0.00 | 86 | 1007.1 |
| 20260904031002 | 77 | 298 | 0.9 | 3.5 | 0.00 | 0.00 | 0.00 | 86 | 1007.2 |
| 20260904030501 | 77 | 158 | 0.0 | 3.5 | 0.00 | 0.00 | 0.00 | 86 | 1007.2 |
| 20260904030005 | 77 | 222 | 0.0 | 3.5 | 0.00 | 0.00 | 0.00 | 85 | 1007.2 |
| 20260904025501 | 77 | 240 | 0.0 | 4.3 | 0.00 | 0.00 | 0.00 | 85 | 1007.2 |
| 20260904025001 | 77 | 274 | 0.9 | 5.2 | 0.00 | 0.00 | 0.00 | 85 | 1007.2 |
| 20260904024601 | 77 | 212 | 0.9 | 5.2 | 0.00 | 0.00 | 0.00 | 84 | 1007.1 |
| 20260904024500 | 77 | 240 | 0.9 | 6.1 | 0.00 | 0.00 | 0.00 | 84 | 1007.1 |
| 20260904024001 | 77 | 249 | 0.9 | 6.1 | 0.00 | 0.00 | 0.00 | 84 | 1007.1 |
| 20260904023600 | 77 | 264 | 0.9 | 6.1 | 0.00 | 0.00 | 0.00 | 83 | 1007.1 |
| 20260904023059 | 77 | 162 | 1.7 | 6.1 | 0.00 | 0.00 | 0.00 | 83 | 1007.1 |
| 20260904022600 | 78 | 169 | 0.9 | 6.1 | 0.00 | 0.00 | 0.00 | 83 | 1007.0 |
| 20260904022058 | 78 | 165 | 0.9 | 4.3 | 0.00 | 0.00 | 0.00 | 83 | 1006.9 |
| 20260904021558 | 78 | 148 | 0.9 | 4.3 | 0.00 | 0.00 | 0.00 | 83 | 1007.0 |
| 20260904021057 | 78 | 225 | 0.0 | 4.3 | 0.00 | 0.00 | 0.00 | 82 | 1006.8 |
| 20260904020559 | 78 | 225 | 0.9 | 4.3 | 0.00 | 0.00 | 0.00 | 82 | 1006.8 |
| 20260904020057 | 78 | 190 | 0.0 | 2.6 | 0.00 | 0.00 | 0.00 | 81 | 1006.9 |
| 20260904015557 | 78 | 109 | 0.0 | 2.6 | 0.00 | 0.00 | 0.00 | 81 | 1006.9 |
| 20260904015055 | 78 | 128 | 0.0 | 2.6 | 0.00 | 0.00 | 0.00 | 81 | 1006.9 |
| 20260904014611 | 78 | 177 | 0.0 | 1.7 | 0.00 | 0.00 | 0.00 | 80 | 1006.8 |
| 20260904014056 | 79 | 99 | 0.0 | 1.7 | 0.00 | 0.00 | 0.00 | 80 | 1006.8 |
| 20260904013553 | 79 | 179 | 0.0 | 1.7 | 0.00 | 0.00 | 0.00 | 79 | 1006.7 |
| 20260904013053 | 79 | 34 | 0.0 | 1.7 | 0.00 | 0.00 | 0.00 | 79 | 1006.6 |
| 20260904012556 | 79 | 120 | 0.0 | 2.6 | 0.00 | 0.00 | 0.00 | 78 | 1006.7 |
| 20260904012052 | 79 | 152 | 0.0 | 2.6 | 0.00 | 0.00 | 0.00 | 78 | 1006.5 |
| 20260904011552 | 80 | 143 | 0.0 | 3.5 | 0.00 | 0.00 | 0.00 | 78 | 1006.4 |
| 20260904011052 | 80 | 174 | 0.0 | 3.5 | 0.00 | 0.00 | 0.00 | 77 | 1006.3 |
| 20260904010552 | 80 | 187 | 0.0 | 4.3 | 0.00 | 0.00 | 0.00 | 77 | 1006.3 |
| 20260904010052 | 80 | 162 | 1.7 | 4.3 | 0.00 | 0.00 | 0.00 | 76 | 1006.3 |
| 20260904005553 | 81 | 174 | 0.0 | 3.5 | 0.00 | 0.00 | 0.00 | 75 | 1006.3 |
| 20260904005051 | 81 | 186 | 0.9 | 5.2 | 0.00 | 0.00 | 0.00 | 74 | 1006.3 |
| 20260904004551 | 82 | 184 | 0.9 | 5.2 | 0.00 | 0.00 | 0.00 | 73 | 1006.3 |
| 20260904004053 | 82 | 238 | 1.7 | 4.3 | 0.00 | 0.00 | 0.00 | 72 | 1006.3 |
| 20260904003552 | 82 | 224 | 0.9 | 3.5 | 0.00 | 0.00 | 0.00 | 71 | 1006.3 |
| 20260904003050 | 83 | 248 | 0.0 | 7.0 | 0.00 | 0.00 | 0.00 | 70 | 1006.2 |
| 20260904002553 | 83 | 244 | 0.9 | 7.0 | 0.00 | 0.00 | 0.00 | 69 | 1006.2 |
| 20260904002051 | 84 | 143 | 0.0 | 6.1 | 0.00 | 0.00 | 0.00 | 69 | 1006.2 |
| 20260904001550 | 84 | 170 | 0.9 | 5.2 | 0.00 | 0.00 | 0.00 | 69 | 1006.2 |
| 20260904001050 | 84 | 215 | 0.0 | 7.0 | 0.00 | 0.00 | 0.00 | 69 | 1006.2 |
| 20260904000553 | 84 | 240 | 1.7 | 8.7 | 0.00 | 0.00 | 0.00 | 69 | 1006.3 |
| 20260904000051 | 83 | 223 | 2.6 | 8.7 | 0.00 | 0.00 | 0.00 | 70 | 1006.3 |
| 20260903235553 | 83 | 283 | 1.7 | 7.0 | 0.00 | 0.00 | 0.00 | 70 | 1006.4 |
| 20260903235049 | 83 | 222 | 0.9 | 4.3 | 0.00 | 0.00 | 0.00 | 70 | 1006.4 |
| 20260903234550 | 83 | 252 | 0.9 | 3.5 | 0.00 | 0.00 | 0.00 | 70 | 1006.5 |
| 20260903234050 | 84 | 141 | 0.0 | 2.6 | 0.00 | 0.00 | 0.00 | 70 | 1006.5 |
| 20260903233550 | 84 | 193 | 0.0 | 2.6 | 0.00 | 0.00 | 0.00 | 70 | 1006.6 |
| 20260903233050 | 84 | 225 | 0.0 | 2.6 | 0.00 | 0.00 | 0.00 | 69 | 1006.6 |
| 20260903232550 | 84 | 248 | 0.0 | 2.6 | 0.00 | 0.00 | 0.00 | 68 | 1006.6 |
| 20260903232052 | 84 | 214 | 0.9 | 4.3 | 0.00 | 0.00 | 0.00 | 67 | 1006.5 |
| 20260903231555 | 85 | 248 | 0.0 | 7.0 | 0.00 | 0.00 | 0.00 | 67 | 1006.4 |
| 20260903231048 | 84 | 264 | 2.6 | 7.0 | 0.00 | 0.00 | 0.00 | 67 | 1006.3 |
| 20260903230548 | 85 | 179 | 1.7 | 6.1 | 0.00 | 0.00 | 0.00 | 68 | 1006.2 |
| 20260903230051 | 85 | 170 | 0.9 | 7.8 | 0.00 | 0.00 | 0.00 | 68 | 1006.0 |
| 20260903225548 | 85 | 195 | 1.7 | 7.8 | 0.00 | 0.00 | 0.00 | 68 | 1005.9 |
| 20260903225049 | 85 | 252 | 0.9 | 7.0 | 0.00 | 0.00 | 0.00 | 69 | 1005.6 |
| 20260903224548 | 85 | 174 | 0.9 | 7.0 | 0.00 | 0.00 | 0.00 | 69 | 1005.6 |
| 20260903224048 | 85 | 210 | 0.9 | 7.8 | 0.00 | 0.00 | 0.00 | 68 | 1005.6 |
| 20260903223548 | 85 | 257 | 1.7 | 7.8 | 0.00 | 0.00 | 0.00 | 68 | 1005.6 |
| 20260903223048 | 85 | 198 | 1.7 | 10.4 | 0.00 | 0.00 | 0.00 | 67 | 1005.4 |
| 20260903222550 | 86 | 167 | 3.5 | 11.3 | 0.00 | 0.00 | 0.00 | 66 | 1005.5 |
| 20260903222047 | 86 | 166 | 5.2 | 10.4 | 0.00 | 0.00 | 0.00 | 66 | 1005.2 |
| 20260903221546 | 85 | 193 | 2.6 | 9.6 | 0.00 | 0.00 | 0.00 | 68 | 1005.5 |
| 20260903221044 | 85 | 78 | 0.9 | 9.6 | 0.00 | 0.00 | 0.00 | 69 | 1005.6 |
| 20260903220544 | 84 | 244 | 1.7 | 11.3 | 0.00 | 0.00 | 0.00 | 69 | 1005.8 |
| 20260903220048 | 84 | 200 | 3.5 | 11.3 | 0.00 | 0.00 | 0.00 | 68 | 1005.9 |
| 20260903215545 | 85 | 159 | 2.6 | 12.2 | 0.00 | 0.00 | 0.00 | 68 | 1005.8 |
| 20260903215043 | 84 | 277 | 1.7 | 12.2 | 0.00 | 0.00 | 0.00 | 68 | 1006.0 |
| 20260903214545 | 84 | 225 | 1.7 | 7.8 | 0.00 | 0.00 | 0.00 | 69 | 1006.0 |
| 20260903214042 | 84 | 185 | 3.5 | 9.6 | 0.00 | 0.00 | 0.00 | 69 | 1005.9 |
| 20260903213542 | 84 | 160 | 3.5 | 9.6 | 0.00 | 0.00 | 0.00 | 69 | 1006.0 |
| 20260903213042 | 84 | 195 | 2.6 | 12.2 | 0.00 | 0.00 | 0.00 | 68 | 1006.1 |
| 20260903212541 | 84 | 290 | 2.6 | 12.2 | 0.00 | 0.00 | 0.00 | 67 | 1006.0 |
| 20260903212041 | 85 | 181 | 0.9 | 5.2 | 0.00 | 0.00 | 0.00 | 67 | 1006.1 |
| 20260903211541 | 85 | 267 | 1.7 | 5.2 | 0.00 | 0.00 | 0.00 | 66 | 1006.1 |
| 20260903211041 | 86 | 264 | 0.9 | 6.1 | 0.00 | 0.00 | 0.00 | 67 | 1006.1 |
| 20260903210541 | 86 | 248 | 2.6 | 8.7 | 0.00 | 0.00 | 0.00 | 65 | 1006.2 |
| 20260903210044 | 86 | 270 | 4.3 | 10.4 | 0.00 | 0.00 | 0.00 | 66 | 1006.0 |
| 20260903205541 | 86 | 231 | 2.6 | 11.3 | 0.00 | 0.00 | 0.00 | 68 | 1006.0 |
| 20260903205040 | 85 | 245 | 4.3 | 11.3 | 0.00 | 0.00 | 0.00 | 67 | 1006.0 |
| 20260903204540 | 84 | 315 | 2.6 | 12.2 | 0.00 | 0.00 | 0.00 | 69 | 1006.2 |
| 20260903204043 | 84 | 267 | 5.2 | 12.2 | 0.00 | 0.00 | 0.00 | 69 | 1006.1 |
| 20260903203540 | 84 | 260 | 4.3 | 9.6 | 0.00 | 0.00 | 0.00 | 69 | 1006.1 |
| 20260903203039 | 84 | 264 | 3.5 | 10.4 | 0.00 | 0.00 | 0.00 | 67 | 1006.1 |
| 20260903202541 | 84 | 282 | 3.5 | 11.3 | 0.00 | 0.00 | 0.00 | 67 | 1006.1 |
| 20260903202039 | 84 | 222 | 4.3 | 11.3 | 0.00 | 0.00 | 0.00 | 67 | 1006.1 |
| 20260903201539 | 84 | 243 | 1.7 | 10.4 | 0.00 | 0.00 | 0.00 | 68 | 1006.2 |
| 20260903201041 | 84 | 200 | 3.5 | 10.4 | 0.00 | 0.00 | 0.00 | 67 | 1006.3 |
| 20260903200538 | 85 | 85 | 4.3 | 10.4 | 0.00 | 0.00 | 0.00 | 66 | 1006.1 |
| 20260903200037 | 85 | 160 | 4.3 | 9.6 | 0.00 | 0.00 | 0.00 | 65 | 1006.2 |